UAL1107 KSFO-KRSW

Flight info

Callsign UAL1107
Flight time N/A
Altitude 33000
Route TRUKN2 SYRAH JSICA Q130 ROCCY KD45Q GERRO KA39U/N0467F350 MIDAE KA36W CAUDE KF27A SEANN KF18E JIPRI KH03I TBD LEV Y290 BLVNS KOLBR TYNEE4
Aircraft B738/M-SDE2E3FGHIRWXY/LB1

Departure

Time 2026-05-06 20:59
Airport San Francisco International Airport (KSFO)

Arrival

Time N/A
Airport Southwest Florida International Airport (KRSW)
Time Latitude Longitude Altitude Speed Heading
2026-05-06 20:56 37.61507 -122.37006 23 ft 17 kts 118°
2026-05-06 20:56 37.61443 -122.36891 24 ft 16 kts 133°
2026-05-06 20:56 37.61369 -122.36785 22 ft 17 kts 127°
2026-05-06 20:57 37.61315 -122.36659 21 ft 16 kts 117°
2026-05-06 20:57 37.61263 -122.36537 21 ft 16 kts 117°
2026-05-06 20:57 37.61205 -122.36398 21 ft 20 kts 118°
2026-05-06 20:57 37.61139 -122.36242 21 ft 20 kts 118°
2026-05-06 20:58 37.61075 -122.36092 23 ft 19 kts 118°
2026-05-06 20:58 37.61054 -122.35962 21 ft 15 kts 72°
2026-05-06 20:58 37.61126 -122.35882 22 ft 14 kts 23°
2026-05-06 20:58 37.61208 -122.35928 21 ft 16 kts 298°
2026-05-06 20:59 37.61355 -122.36277 21 ft 81 kts 297°
2026-05-06 20:59 37.61726 -122.37165 26 ft 145 kts 298°
2026-05-06 20:59 37.62250 -122.38406 491 ft 163 kts 297°
2026-05-06 20:59 37.62749 -122.39749 1174 ft 180 kts 295°
2026-05-06 21:00 37.63559 -122.41076 1467 ft 207 kts 325°
2026-05-06 21:00 37.64964 -122.41589 1793 ft 226 kts
2026-05-06 21:00 37.66495 -122.40797 2018 ft 253 kts 43°
2026-05-06 21:00 37.67334 -122.38856 2756 ft 253 kts 75°
2026-05-06 21:01 37.67751 -122.36693 3555 ft 257 kts 74°
2026-05-06 21:01 37.68229 -122.34490 4243 ft 263 kts 71°
2026-05-06 21:01 37.68766 -122.32262 4993 ft 265 kts 70°
2026-05-06 21:01 37.69348 -122.30034 5730 ft 268 kts 70°
2026-05-06 21:02 37.69940 -122.27880 6457 ft 269 kts 69°
2026-05-06 21:02 37.70567 -122.25653 7171 ft 271 kts 68°
2026-05-06 21:02 37.71203 -122.23412 7716 ft 277 kts 69°
2026-05-06 21:02 37.71885 -122.21142 8460 ft 276 kts 62°
2026-05-06 21:03 37.72875 -122.19042 9060 ft 282 kts 55°
2026-05-06 21:03 37.73979 -122.16988 9789 ft 281 kts 53°
2026-05-06 21:03 37.75082 -122.14938 10465 ft 285 kts 54°
2026-05-06 21:03 37.76223 -122.12794 10693 ft 305 kts 54°
2026-05-06 21:04 37.77436 -122.10487 10854 ft 325 kts 56°
2026-05-06 21:04 37.78717 -122.08030 11023 ft 344 kts 56°
2026-05-06 21:04 37.80048 -122.05455 11347 ft 355 kts 56°
2026-05-06 21:04 37.81406 -122.02823 11873 ft 360 kts 56°
2026-05-06 21:05 37.82688 -122.00093 12491 ft 362 kts 66°
2026-05-06 21:05 37.83351 -121.97013 13108 ft 365 kts 77°
2026-05-06 21:05 37.83896 -121.93855 13644 ft 369 kts 77°
2026-05-06 21:05 37.84463 -121.90678 14191 ft 372 kts 76°
2026-05-06 21:06 37.85036 -121.87525 14713 ft 374 kts 76°
2026-05-06 21:06 37.85626 -121.84308 15220 ft 376 kts 76°
2026-05-06 21:06 37.86224 -121.81069 15750 ft 379 kts 76°
2026-05-06 21:06 37.86825 -121.77816 16285 ft 381 kts 76°
2026-05-06 21:07 37.87429 -121.74548 16803 ft 383 kts 76°
2026-05-06 21:07 37.88039 -121.71243 17273 ft 387 kts 76°
2026-05-06 21:07 37.88653 -121.67911 17754 ft 390 kts 76°
2026-05-06 21:07 37.89271 -121.64553 18249 ft 393 kts 76°
2026-05-06 21:08 37.89891 -121.61173 18708 ft 395 kts 76°
2026-05-06 21:08 37.90515 -121.57770 19118 ft 398 kts 76°
2026-05-06 21:08 37.91142 -121.54345 19505 ft 402 kts 76°
2026-05-06 21:08 37.91775 -121.50876 19910 ft 405 kts 75°
2026-05-06 21:09 37.92411 -121.47390 20313 ft 408 kts 75°
2026-05-06 21:09 37.93050 -121.43878 20720 ft 411 kts 75°
2026-05-06 21:09 37.93693 -121.40339 21107 ft 414 kts 75°
2026-05-06 21:09 37.94340 -121.36769 21498 ft 417 kts 75°
2026-05-06 21:10 37.94992 -121.33169 21872 ft 420 kts 75°
2026-05-06 21:10 37.95645 -121.29552 22250 ft 423 kts 75°
2026-05-06 21:10 37.96292 -121.25958 22620 ft 426 kts 75°
2026-05-06 21:10 37.96953 -121.22284 23005 ft 428 kts 75°
2026-05-06 21:11 37.97615 -121.18598 23371 ft 431 kts 75°
2026-05-06 21:11 37.98282 -121.14881 23698 ft 434 kts 75°
2026-05-06 21:11 37.98953 -121.11134 23990 ft 437 kts 75°
2026-05-06 21:11 37.99601 -121.07367 24309 ft 439 kts 76°
2026-05-06 21:12 38.00206 -121.03562 24617 ft 441 kts 77°
2026-05-06 21:12 38.00791 -120.99743 24934 ft 442 kts 77°
2026-05-06 21:12 38.01370 -120.95910 25242 ft 444 kts 77°
2026-05-06 21:12 38.01954 -120.92054 25559 ft 446 kts 77°
2026-05-06 21:13 38.02541 -120.88187 25851 ft 447 kts 77°
2026-05-06 21:13 38.03134 -120.84303 26126 ft 450 kts 77°
2026-05-06 21:13 38.03730 -120.80404 26392 ft 452 kts 77°
2026-05-06 21:13 38.04331 -120.76480 26660 ft 454 kts 77°
2026-05-06 21:14 38.04933 -120.72538 26933 ft 455 kts 77°
2026-05-06 21:14 38.05535 -120.68592 27205 ft 457 kts 77°
2026-05-06 21:14 38.06139 -120.64623 27470 ft 459 kts 77°
2026-05-06 21:14 38.06745 -120.60637 27693 ft 461 kts 77°
2026-05-06 21:15 38.07351 -120.56635 27949 ft 463 kts 77°
2026-05-06 21:15 38.07958 -120.52619 28197 ft 464 kts 77°
2026-05-06 21:15 38.08567 -120.48583 28448 ft 466 kts 77°